Terug naar catalogus

CANX-1

ActiefWetenschapSSO
NORAD 27847·PAYLOAD·🇨🇦 Canada

Gelanceerd Jun 30, 2003 vanaf Plesetsk Cosmodrome

Loading…

Volgende Passages (komende 24 uur)

TLE

VersSource: Space-Track

Epoch: Sep 14, 2026, 06:57 UTC

1 27847U 03031H   26257.29020634  .00000137  00000-0  78801-4 0  9992
2 27847  98.6896 264.7126 0008030 265.7326  94.2936 14.23891055204418

Volg CANX-1 in realtime met AllMySat

Download on the App Store